Time,TemperatureF,DewpointF,PressureIn,WindDirection,WindDirectionDegrees,WindSpeedMPH,WindSpeedGustMPH,Humidity,HourlyPrecipIn,Conditions,Clouds,dailyrainin,SoftwareType,DateUTC
2013-12-05 00:00:00,44.1,40.8,30.09,East,97,6.0,6.0,88,0.00,,,0.00,meteobridge,2013-12-05 05:00:00,
2013-12-05 00:02:00,44.1,40.8,30.09,ESE,120,2.0,4.9,88,0.00,,,0.00,meteobridge,2013-12-05 05:02:00,
2013-12-05 00:04:00,44.1,40.8,30.09,East,94,4.0,4.9,88,0.00,,,0.00,meteobridge,2013-12-05 05:04:00,
2013-12-05 00:10:00,44.1,40.8,30.09,SSW,193,0.9,0.9,88,0.00,,,0.00,meteobridge,2013-12-05 05:10:00,
2013-12-05 00:14:00,44.1,40.8,30.09,SE,135,0.9,0.9,88,0.00,,,0.00,meteobridge,2013-12-05 05:14:00,
2013-12-05 00:20:00,44.1,40.5,30.08,SSE,155,0.9,4.9,87,0.00,,,0.00,meteobridge,2013-12-05 05:20:00,
2013-12-05 00:26:00,44.1,40.5,30.09,SW,224,2.0,2.9,87,0.00,,,0.00,meteobridge,2013-12-05 05:26:00,
2013-12-05 00:32:00,44.1,40.5,30.09,SE,141,0.9,2.9,87,0.00,,,0.00,meteobridge,2013-12-05 05:32:00,
2013-12-05 00:38:00,44.1,40.5,30.09,ESE,114,0.9,2.9,87,0.00,,,0.00,meteobridge,2013-12-05 05:38:00,
2013-12-05 00:40:00,43.9,40.3,30.08,SE,127,0.9,2.0,87,0.00,,,0.00,meteobridge,2013-12-05 05:40:00,
2013-12-05 00:46:00,43.9,40.3,30.08,East,82,2.9,4.0,87,0.00,,,0.00,meteobridge,2013-12-05 05:46:00,
2013-12-05 00:53:00,43.9,40.6,30.07,SE,145,2.9,4.9,88,0.00,,,0.00,meteobridge,2013-12-05 05:53:00,
2013-12-05 00:57:00,43.9,40.6,30.07,SE,131,2.9,2.9,88,0.00,,,0.00,meteobridge,2013-12-05 05:57:00,
2013-12-05 01:03:00,43.9,40.6,30.08,SW,215,2.0,4.0,88,0.00,,,0.00,meteobridge,2013-12-05 06:03:00,
2013-12-05 01:09:00,43.9,40.6,30.08,ESE,108,2.9,4.0,88,0.00,,,0.00,meteobridge,2013-12-05 06:09:00,
2013-12-05 01:15:00,43.9,40.8,30.08,SSE,158,0.9,2.9,89,0.00,,,0.00,meteobridge,2013-12-05 06:15:00,
2013-12-05 01:21:00,43.9,40.8,30.08,SE,145,2.9,2.9,89,0.00,,,0.00,meteobridge,2013-12-05 06:21:00,
2013-12-05 01:27:00,43.7,40.6,30.08,East,100,2.0,2.0,89,0.00,,,0.00,meteobridge,2013-12-05 06:27:00,
2013-12-05 01:33:00,43.7,41.0,30.08,SSW,195,4.0,6.9,90,0.00,,,0.00,meteobridge,2013-12-05 06:33:00,
2013-12-05 01:40:00,43.5,41.0,30.08,South,190,2.9,8.1,91,0.00,,,0.00,meteobridge,2013-12-05 06:40:00,
2013-12-05 01:46:00,43.3,40.8,30.08,ESE,121,2.9,4.0,91,0.00,,,0.00,meteobridge,2013-12-05 06:46:00,
2013-12-05 01:52:00,43.2,41.0,30.08,SE,145,2.0,4.9,92,0.00,,,0.00,meteobridge,2013-12-05 06:52:00,
2013-12-05 01:58:00,43.0,40.8,30.09,ESE,120,4.9,6.0,92,0.00,,,0.00,meteobridge,2013-12-05 06:58:00,
2013-12-05 02:04:00,43.0,41.2,30.09,SSW,195,2.0,4.0,93,0.00,,,0.00,meteobridge,2013-12-05 07:04:00,
2013-12-05 02:10:00,42.8,41.0,30.09,SE,146,2.9,2.9,93,0.00,,,0.00,meteobridge,2013-12-05 07:10:00,
2013-12-05 02:16:00,43.0,41.2,30.09,SSE,166,0.9,4.0,93,0.00,,,0.00,meteobridge,2013-12-05 07:16:00,
2013-12-05 02:22:00,43.0,41.2,30.09,SSE,148,0.0,0.0,93,0.00,,,0.00,meteobridge,2013-12-05 07:22:00,
2013-12-05 02:29:00,42.8,41.0,30.09,SSE,158,2.0,2.0,93,0.00,,,0.00,meteobridge,2013-12-05 07:29:00,
2013-12-05 02:35:00,42.8,41.0,30.09,SSE,160,0.9,2.9,93,0.00,,,0.00,meteobridge,2013-12-05 07:35:00,
2013-12-05 02:41:00,42.8,41.0,30.09,SSE,152,2.9,2.9,93,0.00,,,0.00,meteobridge,2013-12-05 07:41:00,
2013-12-05 02:47:00,42.8,41.0,30.09,East,95,2.9,4.0,93,0.00,,,0.00,meteobridge,2013-12-05 07:47:00,
2013-12-05 02:53:00,42.8,41.0,30.09,SE,139,2.0,2.9,93,0.00,,,0.00,meteobridge,2013-12-05 07:53:00,
2013-12-05 03:00:00,43.0,41.2,30.09,ESE,115,2.9,4.0,93,0.00,,,0.00,meteobridge,2013-12-05 08:00:00,
2013-12-05 03:06:00,43.0,41.2,30.09,SSW,208,0.9,2.0,93,0.00,,,0.00,meteobridge,2013-12-05 08:06:00,
2013-12-05 03:12:00,43.0,41.2,30.09,SE,127,0.9,2.9,93,0.00,,,0.00,meteobridge,2013-12-05 08:12:00,
2013-12-05 03:18:00,43.0,41.2,30.08,SE,131,4.0,4.9,93,0.00,,,0.00,meteobridge,2013-12-05 08:18:00,
2013-12-05 03:25:00,43.0,41.2,30.08,SE,136,0.9,4.9,93,0.00,,,0.00,meteobridge,2013-12-05 08:25:00,
2013-12-05 03:31:00,43.0,41.2,30.07,SE,130,2.9,2.9,93,0.01,,,0.01,meteobridge,2013-12-05 08:31:00,
2013-12-05 03:37:00,43.0,41.2,30.07,SSE,148,4.9,4.9,93,0.01,,,0.01,meteobridge,2013-12-05 08:37:00,
2013-12-05 03:43:00,43.2,41.4,30.06,South,171,2.9,6.0,93,0.01,,,0.01,meteobridge,2013-12-05 08:43:00,
2013-12-05 03:49:00,43.3,41.5,30.06,SE,131,4.9,8.1,93,0.01,,,0.01,meteobridge,2013-12-05 08:49:00,
2013-12-05 03:55:00,43.3,41.5,30.07,SE,131,4.9,6.9,93,0.01,,,0.01,meteobridge,2013-12-05 08:55:00,
2013-12-05 04:01:00,43.3,41.5,30.06,SE,142,4.9,6.0,93,0.01,,,0.01,meteobridge,2013-12-05 09:01:00,
2013-12-05 04:07:00,43.2,41.4,30.07,SSE,153,2.9,4.0,93,0.01,,,0.01,meteobridge,2013-12-05 09:07:00,
2013-12-05 04:13:00,43.0,41.2,30.07,SSE,153,2.0,4.0,93,0.01,,,0.01,meteobridge,2013-12-05 09:13:00,
2013-12-05 04:19:00,43.2,41.4,30.07,SSE,150,6.0,6.0,93,0.01,,,0.01,meteobridge,2013-12-05 09:19:00,
2013-12-05 04:26:00,43.3,41.5,30.07,South,182,4.9,6.9,93,0.00,,,0.01,meteobridge,2013-12-05 09:26:00,
2013-12-05 04:32:00,43.3,41.5,30.07,SE,134,0.0,4.0,93,0.00,,,0.01,meteobridge,2013-12-05 09:32:00,
2013-12-05 04:38:00,43.3,41.5,30.06,SE,135,0.9,2.9,93,0.00,,,0.01,meteobridge,2013-12-05 09:38:00,
2013-12-05 04:44:00,43.3,41.5,30.06,SSE,156,2.0,4.0,93,0.00,,,0.01,meteobridge,2013-12-05 09:44:00,
2013-12-05 04:50:00,43.2,41.4,30.06,SE,132,2.9,4.9,93,0.00,,,0.01,meteobridge,2013-12-05 09:50:00,
2013-12-05 04:56:00,43.3,41.5,30.06,SSE,158,2.0,6.0,93,0.00,,,0.01,meteobridge,2013-12-05 09:56:00,
2013-12-05 05:02:00,43.3,41.5,30.06,SE,134,0.0,2.9,93,0.00,,,0.01,meteobridge,2013-12-05 10:02:00,
2013-12-05 05:09:00,43.3,41.5,30.07,SE,135,2.0,2.0,93,0.00,,,0.01,meteobridge,2013-12-05 10:09:00,
2013-12-05 05:15:00,43.2,41.4,30.06,South,169,2.0,2.9,93,0.00,,,0.01,meteobridge,2013-12-05 10:15:00,
2013-12-05 05:21:00,43.2,41.4,30.06,SE,142,0.9,2.0,93,0.00,,,0.01,meteobridge,2013-12-05 10:21:00,
2013-12-05 05:27:00,43.3,41.5,30.06,ESE,107,2.9,2.9,93,0.00,,,0.01,meteobridge,2013-12-05 10:27:00,
2013-12-05 05:33:00,43.3,41.5,30.06,SSE,148,0.9,4.0,93,0.00,,,0.01,meteobridge,2013-12-05 10:33:00,
2013-12-05 05:40:00,43.5,41.7,30.04,ESE,105,2.9,4.9,93,0.00,,,0.01,meteobridge,2013-12-05 10:40:00,
2013-12-05 05:46:00,43.5,41.7,30.04,ESE,121,2.9,4.0,93,0.00,,,0.01,meteobridge,2013-12-05 10:46:00,
2013-12-05 05:52:00,43.5,41.7,30.04,SE,134,0.9,2.0,93,0.00,,,0.01,meteobridge,2013-12-05 10:52:00,
2013-12-05 05:58:00,43.5,41.7,30.05,SSE,151,2.0,2.0,93,0.00,,,0.01,meteobridge,2013-12-05 10:58:00,
2013-12-05 06:04:00,43.5,41.7,30.05,South,172,0.9,2.0,93,0.00,,,0.01,meteobridge,2013-12-05 11:04:00,
2013-12-05 06:10:00,43.5,41.7,30.05,South,172,2.9,2.9,93,0.00,,,0.01,meteobridge,2013-12-05 11:10:00,
2013-12-05 06:17:00,43.5,41.7,30.05,ESE,121,2.0,2.0,93,0.00,,,0.01,meteobridge,2013-12-05 11:17:00,
2013-12-05 06:23:00,43.3,41.5,30.05,SSE,155,2.9,4.0,93,0.00,,,0.01,meteobridge,2013-12-05 11:23:00,
2013-12-05 06:29:00,43.3,41.5,30.04,SE,124,2.0,2.9,93,0.00,,,0.01,meteobridge,2013-12-05 11:29:00,
2013-12-05 06:35:00,43.5,41.7,30.05,ESE,114,2.9,4.0,93,0.00,,,0.01,meteobridge,2013-12-05 11:35:00,
2013-12-05 06:41:00,43.5,41.7,30.04,SE,129,4.0,4.9,93,0.00,,,0.01,meteobridge,2013-12-05 11:41:00,
2013-12-05 06:48:00,43.9,41.9,30.04,East,83,2.0,4.0,93,0.00,,,0.01,meteobridge,2013-12-05 11:48:00,
2013-12-05 06:54:00,44.1,42.1,30.05,SSE,163,2.0,4.0,93,0.00,,,0.01,meteobridge,2013-12-05 11:54:00,
2013-12-05 07:00:00,44.2,42.3,30.05,ESE,108,2.0,2.0,93,0.00,,,0.01,meteobridge,2013-12-05 12:00:00,
2013-12-05 07:06:00,44.4,42.4,30.05,ESE,113,2.0,2.0,93,0.00,,,0.01,meteobridge,2013-12-05 12:06:00,
2013-12-05 07:13:00,44.4,42.4,30.05,ENE,77,2.0,2.9,93,0.00,,,0.01,meteobridge,2013-12-05 12:13:00,
2013-12-05 07:19:00,44.4,42.4,30.04,SSE,156,0.0,4.0,93,0.00,,,0.01,meteobridge,2013-12-05 12:19:00,
2013-12-05 07:25:00,44.4,42.4,30.05,East,97,0.9,2.9,93,0.00,,,0.01,meteobridge,2013-12-05 12:25:00,
2013-12-05 07:31:00,44.8,43.2,30.05,SE,128,0.9,2.9,94,0.00,,,0.01,meteobridge,2013-12-05 12:31:00,
2013-12-05 07:37:00,44.8,43.2,30.05,SSE,152,2.9,2.9,94,0.00,,,0.01,meteobridge,2013-12-05 12:37:00,
2013-12-05 07:43:00,45.0,43.3,30.05,SE,130,2.9,4.9,94,0.00,,,0.01,meteobridge,2013-12-05 12:43:00,
2013-12-05 07:49:00,45.0,43.3,30.05,SSE,158,2.9,2.9,94,0.00,,,0.01,meteobridge,2013-12-05 12:49:00,
2013-12-05 07:56:00,45.0,43.3,30.05,SSE,152,0.9,2.9,94,0.00,,,0.01,meteobridge,2013-12-05 12:56:00,
2013-12-05 08:02:00,45.0,43.3,30.05,SE,131,0.9,2.9,94,0.00,,,0.01,meteobridge,2013-12-05 13:02:00,
2013-12-05 08:08:00,45.1,43.2,30.04,SE,129,2.0,2.9,93,0.00,,,0.01,meteobridge,2013-12-05 13:08:00,
2013-12-05 08:14:00,45.1,43.5,30.04,SSE,155,2.0,4.0,94,0.00,,,0.01,meteobridge,2013-12-05 13:14:00,
2013-12-05 08:20:00,45.1,43.5,30.04,SSE,158,2.0,4.0,94,0.00,,,0.01,meteobridge,2013-12-05 13:20:00,
2013-12-05 08:27:00,45.1,43.2,30.04,SE,129,2.0,4.9,93,0.00,,,0.01,meteobridge,2013-12-05 13:27:00,
2013-12-05 08:33:00,45.1,43.2,30.04,SE,134,2.9,4.9,93,0.00,,,0.01,meteobridge,2013-12-05 13:33:00,
2013-12-05 08:39:00,45.3,43.7,30.04,SE,136,2.0,4.9,94,0.00,,,0.01,meteobridge,2013-12-05 13:39:00,
2013-12-05 08:45:00,45.3,43.7,30.05,SSE,162,4.0,4.0,94,0.00,,,0.01,meteobridge,2013-12-05 13:45:00,
2013-12-05 08:51:00,45.3,43.7,30.04,South,190,0.9,2.9,94,0.00,,,0.01,meteobridge,2013-12-05 13:51:00,
2013-12-05 08:57:00,45.5,43.9,30.05,SE,131,2.0,2.9,94,0.00,,,0.01,meteobridge,2013-12-05 13:57:00,
2013-12-05 09:03:00,45.7,44.1,30.05,SSE,149,2.0,2.9,94,0.00,,,0.01,meteobridge,2013-12-05 14:03:00,
2013-12-05 09:09:00,45.9,44.2,30.05,SSE,152,0.9,2.0,94,0.00,,,0.01,meteobridge,2013-12-05 14:09:00,
2013-12-05 09:16:00,45.9,44.2,30.04,SE,138,0.0,2.0,94,0.00,,,0.01,meteobridge,2013-12-05 14:16:00,
2013-12-05 09:22:00,46.0,44.4,30.04,SE,124,0.9,2.0,94,0.00,,,0.01,meteobridge,2013-12-05 14:22:00,
2013-12-05 09:28:00,46.4,44.8,30.04,SSE,158,0.0,0.0,94,0.00,,,0.01,meteobridge,2013-12-05 14:28:00,
2013-12-05 09:34:00,46.6,45.0,30.05,SSE,150,0.0,0.0,94,0.00,,,0.01,meteobridge,2013-12-05 14:34:00,
2013-12-05 09:41:00,47.1,45.5,30.05,ESE,121,0.0,0.0,94,0.00,,,0.01,meteobridge,2013-12-05 14:41:00,
2013-12-05 09:47:00,47.3,45.7,30.05,ESE,121,0.0,0.0,94,0.00,,,0.01,meteobridge,2013-12-05 14:47:00,
2013-12-05 09:53:00,47.1,45.5,30.05,SE,136,0.0,0.0,94,0.00,,,0.01,meteobridge,2013-12-05 14:53:00,
2013-12-05 09:59:00,47.7,46.0,30.06,West,278,0.0,0.9,94,0.00,,,0.01,meteobridge,2013-12-05 14:59:00,
2013-12-05 10:06:00,47.8,46.2,30.06,SW,222,0.0,2.0,94,0.00,,,0.01,meteobridge,2013-12-05 15:06:00,
2013-12-05 10:12:00,48.0,46.4,30.05,West,266,0.0,2.0,94,0.00,,,0.01,meteobridge,2013-12-05 15:12:00,
2013-12-05 10:18:00,48.4,46.8,30.06,SSW,210,0.9,2.0,94,0.00,,,0.01,meteobridge,2013-12-05 15:18:00,
2013-12-05 10:24:00,48.4,46.8,30.05,SSE,150,0.9,0.9,94,0.00,,,0.01,meteobridge,2013-12-05 15:24:00,
2013-12-05 10:30:00,48.2,46.6,30.05,South,190,0.0,0.0,94,0.00,,,0.01,meteobridge,2013-12-05 15:30:00,
2013-12-05 10:37:00,48.0,46.4,30.04,SSE,160,0.0,0.0,94,0.00,,,0.01,meteobridge,2013-12-05 15:37:00,
2013-12-05 10:43:00,48.0,46.4,30.05,SW,221,0.0,0.0,94,0.00,,,0.01,meteobridge,2013-12-05 15:43:00,
2013-12-05 10:49:00,48.4,46.8,30.05,SSE,156,0.0,0.0,94,0.00,,,0.01,meteobridge,2013-12-05 15:49:00,
2013-12-05 10:55:00,48.6,46.9,30.04,WSW,248,0.0,0.0,94,0.00,,,0.01,meteobridge,2013-12-05 15:55:00,
2013-12-05 11:02:00,48.7,47.1,30.04,SSE,159,0.0,0.0,94,0.00,,,0.01,meteobridge,2013-12-05 16:02:00,
2013-12-05 11:08:00,48.7,47.1,30.04,South,172,0.0,0.9,94,0.00,,,0.01,meteobridge,2013-12-05 16:08:00,
2013-12-05 11:14:00,48.9,47.3,30.03,South,173,0.0,0.0,94,0.00,,,0.01,meteobridge,2013-12-05 16:14:00,
2013-12-05 11:20:00,48.9,47.3,30.02,South,177,0.0,0.0,94,0.00,,,0.01,meteobridge,2013-12-05 16:20:00,
2013-12-05 11:27:00,48.9,47.3,30.01,SSE,148,0.9,2.0,94,0.00,,,0.01,meteobridge,2013-12-05 16:27:00,
2013-12-05 11:33:00,48.9,47.3,30.01,SSE,165,4.9,4.9,94,0.00,,,0.01,meteobridge,2013-12-05 16:33:00,
2013-12-05 11:39:00,49.1,47.5,30.01,SSE,159,0.9,2.9,94,0.00,,,0.01,meteobridge,2013-12-05 16:39:00,
2013-12-05 11:45:00,49.3,47.7,30.00,SE,139,0.9,2.0,94,0.00,,,0.01,meteobridge,2013-12-05 16:45:00,
2013-12-05 11:52:00,49.3,47.7,30.00,SSE,155,0.0,2.0,94,0.00,,,0.01,meteobridge,2013-12-05 16:52:00,
2013-12-05 11:58:00,49.3,47.7,29.99,SSE,156,2.0,2.9,94,0.00,,,0.01,meteobridge,2013-12-05 16:58:00,
2013-12-05 12:04:00,49.3,47.7,29.98,SSW,200,2.0,2.9,94,0.00,,,0.01,meteobridge,2013-12-05 17:04:00,
2013-12-05 12:10:00,49.5,47.5,29.98,SSE,159,2.0,6.0,93,0.00,,,0.01,meteobridge,2013-12-05 17:10:00,
2013-12-05 12:16:00,49.6,47.7,29.98,SSE,163,2.0,2.9,93,0.00,,,0.01,meteobridge,2013-12-05 17:16:00,
2013-12-05 12:22:00,49.8,47.8,29.98,SSE,163,0.9,4.9,93,0.00,,,0.01,meteobridge,2013-12-05 17:22:00,
2013-12-05 12:28:00,49.8,47.8,29.98,South,179,0.9,2.0,93,0.00,,,0.01,meteobridge,2013-12-05 17:28:00,
2013-12-05 12:34:00,50.0,48.0,29.98,SW,226,2.0,4.0,93,0.00,,,0.01,meteobridge,2013-12-05 17:34:00,
2013-12-05 12:41:00,50.2,48.2,29.98,SW,228,0.0,2.0,93,0.00,,,0.01,meteobridge,2013-12-05 17:41:00,
2013-12-05 12:47:00,50.2,48.2,29.98,SSW,200,0.9,2.9,93,0.00,,,0.01,meteobridge,2013-12-05 17:47:00,
2013-12-05 12:53:00,50.2,48.2,29.98,South,177,0.9,2.0,93,0.00,,,0.01,meteobridge,2013-12-05 17:53:00,
2013-12-05 12:59:00,50.2,48.2,29.98,South,176,2.0,2.9,93,0.00,,,0.01,meteobridge,2013-12-05 17:59:00,
2013-12-05 13:05:00,50.2,48.2,29.97,SSE,151,0.9,4.0,93,0.00,,,0.01,meteobridge,2013-12-05 18:05:00,
2013-12-05 13:11:00,50.4,48.4,29.97,South,170,0.9,2.0,93,0.00,,,0.01,meteobridge,2013-12-05 18:11:00,
2013-12-05 13:18:00,50.4,48.4,29.97,SSW,204,2.9,2.9,93,0.00,,,0.01,meteobridge,2013-12-05 18:18:00,
2013-12-05 13:24:00,50.5,48.6,29.97,SSW,197,0.9,2.0,93,0.00,,,0.01,meteobridge,2013-12-05 18:24:00,
2013-12-05 13:30:00,50.4,48.4,29.97,South,177,2.0,2.9,93,0.00,,,0.01,meteobridge,2013-12-05 18:30:00,
2013-12-05 13:36:00,50.5,48.6,29.96,SE,134,2.9,2.9,93,0.00,,,0.01,meteobridge,2013-12-05 18:36:00,
2013-12-05 13:42:00,50.5,48.6,29.97,SE,138,0.9,2.9,93,0.00,,,0.01,meteobridge,2013-12-05 18:42:00,
2013-12-05 13:48:00,50.5,48.6,29.96,ESE,107,2.0,2.9,93,0.00,,,0.01,meteobridge,2013-12-05 18:48:00,
2013-12-05 13:54:00,50.5,48.6,29.96,SSE,148,0.0,2.0,93,0.00,,,0.01,meteobridge,2013-12-05 18:54:00,
2013-12-05 14:01:00,50.5,48.6,29.96,SE,143,0.9,2.9,93,0.00,,,0.01,meteobridge,2013-12-05 19:01:00,
2013-12-05 14:07:00,50.5,48.6,29.96,SW,229,0.0,0.0,93,0.00,,,0.01,meteobridge,2013-12-05 19:07:00,
2013-12-05 14:13:00,50.7,48.7,29.97,SW,223,0.0,0.0,93,0.00,,,0.01,meteobridge,2013-12-05 19:13:00,
2013-12-05 14:20:00,50.7,48.7,29.96,SW,225,0.0,0.0,93,0.00,,,0.01,meteobridge,2013-12-05 19:20:00,
2013-12-05 14:26:00,50.7,48.7,29.96,SW,226,0.0,0.0,93,0.00,,,0.01,meteobridge,2013-12-05 19:26:00,
2013-12-05 14:32:00,50.7,48.7,29.96,SW,223,0.0,0.0,93,0.00,,,0.01,meteobridge,2013-12-05 19:32:00,
2013-12-05 14:39:00,50.9,48.9,29.96,SSW,203,0.0,0.0,93,0.00,,,0.01,meteobridge,2013-12-05 19:39:00,
2013-12-05 14:45:00,51.1,49.1,29.96,SSE,155,0.0,0.0,93,0.00,,,0.01,meteobridge,2013-12-05 19:45:00,
2013-12-05 14:51:00,51.3,49.3,29.96,SSE,165,0.0,2.0,93,0.00,,,0.01,meteobridge,2013-12-05 19:51:00,
2013-12-05 14:57:00,51.3,49.3,29.96,SW,222,0.0,0.9,93,0.00,,,0.01,meteobridge,2013-12-05 19:57:00,
2013-12-05 15:04:00,51.3,49.3,29.96,SE,139,2.0,2.0,93,0.00,,,0.01,meteobridge,2013-12-05 20:04:00,
2013-12-05 15:10:00,51.3,49.3,29.96,SSE,160,0.9,2.0,93,0.00,,,0.01,meteobridge,2013-12-05 20:10:00,
2013-12-05 15:16:00,51.4,49.5,29.96,South,175,0.0,2.9,93,0.00,,,0.01,meteobridge,2013-12-05 20:16:00,
2013-12-05 15:22:00,51.4,49.5,29.96,SSW,200,0.9,2.0,93,0.00,,,0.01,meteobridge,2013-12-05 20:22:00,
2013-12-05 15:28:00,51.3,49.3,29.95,SSW,193,0.9,2.0,93,0.00,,,0.01,meteobridge,2013-12-05 20:28:00,
2013-12-05 15:35:00,51.3,49.3,29.95,SSE,153,2.0,4.0,93,0.00,,,0.01,meteobridge,2013-12-05 20:35:00,
2013-12-05 15:41:00,51.4,49.5,29.95,SSW,205,0.9,2.0,93,0.00,,,0.01,meteobridge,2013-12-05 20:41:00,
2013-12-05 15:47:00,51.4,49.5,29.94,South,170,0.0,2.0,93,0.00,,,0.01,meteobridge,2013-12-05 20:47:00,
2013-12-05 15:53:00,51.4,49.5,29.95,WSW,253,0.0,0.0,93,0.00,,,0.01,meteobridge,2013-12-05 20:53:00,
2013-12-05 16:00:00,51.6,49.6,29.95,SW,225,0.0,2.0,93,0.00,,,0.01,meteobridge,2013-12-05 21:00:00,
2013-12-05 16:06:00,51.6,49.6,29.96,SW,235,0.0,2.0,93,0.00,,,0.01,meteobridge,2013-12-05 21:06:00,
2013-12-05 16:12:00,51.6,50.0,29.96,SW,229,0.0,0.9,94,0.00,,,0.01,meteobridge,2013-12-05 21:12:00,
2013-12-05 16:18:00,51.6,50.0,29.96,SW,219,0.0,0.0,94,0.00,,,0.01,meteobridge,2013-12-05 21:18:00,
2013-12-05 16:24:00,51.6,50.0,29.96,SW,232,0.0,2.0,94,0.00,,,0.01,meteobridge,2013-12-05 21:24:00,
2013-12-05 16:31:00,51.6,50.0,29.97,WSW,257,0.0,0.0,94,0.00,,,0.01,meteobridge,2013-12-05 21:31:00,
2013-12-05 16:37:00,51.6,50.0,29.97,West,277,0.0,2.0,94,0.00,,,0.01,meteobridge,2013-12-05 21:37:00,
2013-12-05 16:44:00,51.6,50.0,29.98,ESE,105,0.0,2.0,94,0.00,,,0.01,meteobridge,2013-12-05 21:44:00,
2013-12-05 16:50:00,51.6,50.0,29.98,West,273,2.0,4.0,94,0.00,,,0.01,meteobridge,2013-12-05 21:50:00,
2013-12-05 16:56:00,51.8,50.2,29.98,West,269,2.0,2.9,94,0.00,,,0.01,meteobridge,2013-12-05 21:56:00,
2013-12-05 17:02:00,51.8,50.2,29.98,WSW,256,0.9,2.0,94,0.00,,,0.01,meteobridge,2013-12-05 22:02:00,
2013-12-05 17:08:00,51.8,50.2,29.99,NNW,328,0.0,0.0,94,0.00,,,0.01,meteobridge,2013-12-05 22:08:00,
2013-12-05 17:14:00,51.8,50.2,29.98,WNW,294,0.0,0.0,94,0.00,,,0.01,meteobridge,2013-12-05 22:14:00,
2013-12-05 17:21:00,51.8,50.2,29.99,WSW,247,0.0,2.0,94,0.00,,,0.01,meteobridge,2013-12-05 22:21:00,
2013-12-05 17:27:00,51.8,50.2,29.99,WSW,250,2.9,2.9,94,0.00,,,0.01,meteobridge,2013-12-05 22:27:00,
2013-12-05 17:33:00,51.8,50.2,29.98,WSW,252,0.0,0.9,94,0.00,,,0.01,meteobridge,2013-12-05 22:33:00,
2013-12-05 17:40:00,51.8,50.2,29.98,SW,231,0.0,0.9,94,0.00,,,0.01,meteobridge,2013-12-05 22:40:00,
2013-12-05 17:46:00,51.6,50.0,29.98,SW,231,0.0,0.0,94,0.01,,,0.02,meteobridge,2013-12-05 22:46:00,
2013-12-05 17:52:00,51.3,49.6,29.97,SE,139,0.0,0.0,94,0.01,,,0.02,meteobridge,2013-12-05 22:52:00,
2013-12-05 17:59:00,51.1,49.5,29.97,SSE,158,0.0,0.0,94,0.01,,,0.02,meteobridge,2013-12-05 22:59:00,
2013-12-05 18:05:00,50.9,49.3,29.96,South,170,0.0,0.0,94,0.01,,,0.02,meteobridge,2013-12-05 23:05:00,
2013-12-05 18:11:00,50.7,49.1,29.96,WSW,253,0.0,0.0,94,0.01,,,0.02,meteobridge,2013-12-05 23:11:00,
2013-12-05 18:18:00,50.7,49.1,29.96,SSE,162,0.0,0.0,94,0.01,,,0.02,meteobridge,2013-12-05 23:18:00,
2013-12-05 18:24:00,50.7,49.1,29.97,WSW,243,0.0,0.0,94,0.01,,,0.02,meteobridge,2013-12-05 23:24:00,
2013-12-05 18:30:00,51.3,49.6,29.96,SE,141,0.0,0.0,94,0.01,,,0.02,meteobridge,2013-12-05 23:30:00,
2013-12-05 18:37:00,51.3,49.6,29.95,SE,145,0.0,0.0,94,0.01,,,0.02,meteobridge,2013-12-05 23:37:00,
2013-12-05 18:43:00,51.1,49.5,29.95,SSE,158,0.0,0.0,94,0.00,,,0.02,meteobridge,2013-12-05 23:43:00,
2013-12-05 18:49:00,51.1,49.5,29.95,SSE,152,2.0,2.0,94,0.00,,,0.02,meteobridge,2013-12-05 23:49:00,
2013-12-05 18:55:00,50.9,49.3,29.95,South,174,2.0,2.9,94,0.00,,,0.02,meteobridge,2013-12-05 23:55:00,
2013-12-05 19:01:00,51.1,49.5,29.95,SSE,158,0.9,2.0,94,0.00,,,0.00,meteobridge,2013-12-06 00:01:00,
2013-12-05 19:08:00,51.3,49.6,29.96,SSW,200,0.0,0.0,94,0.00,,,0.00,meteobridge,2013-12-06 00:08:00,
2013-12-05 19:14:00,51.3,49.6,29.96,SSW,200,0.0,0.0,94,0.00,,,0.00,meteobridge,2013-12-06 00:14:00,
2013-12-05 19:20:00,51.4,49.8,29.96,SSW,200,0.0,0.0,94,0.00,,,0.00,meteobridge,2013-12-06 00:20:00,
2013-12-05 19:27:00,51.6,50.0,29.95,SSW,195,0.0,0.0,94,0.00,,,0.00,meteobridge,2013-12-06 00:27:00,
2013-12-05 19:33:00,51.6,50.0,29.96,SSW,197,0.0,0.0,94,0.00,,,0.00,meteobridge,2013-12-06 00:33:00,
2013-12-05 19:39:00,51.6,50.0,29.96,SW,215,0.0,0.0,94,0.00,,,0.00,meteobridge,2013-12-06 00:39:00,
2013-12-05 19:45:00,51.8,50.2,29.96,SW,215,0.0,0.0,94,0.00,,,0.00,meteobridge,2013-12-06 00:45:00,
2013-12-05 19:51:00,52.0,50.4,29.96,SW,218,0.0,0.0,94,0.00,,,0.00,meteobridge,2013-12-06 00:51:00,
2013-12-05 19:58:00,52.0,50.4,29.96,SW,229,0.0,0.0,94,0.00,,,0.00,meteobridge,2013-12-06 00:58:00,
2013-12-05 20:04:00,52.0,50.4,29.95,SSW,197,0.0,0.0,94,0.00,,,0.00,meteobridge,2013-12-06 01:04:00,
2013-12-05 20:10:00,52.0,50.4,29.95,South,184,0.0,0.0,94,0.00,,,0.00,meteobridge,2013-12-06 01:10:00,
2013-12-05 20:17:00,52.0,50.4,29.95,SE,127,0.0,0.0,94,0.00,,,0.00,meteobridge,2013-12-06 01:17:00,
2013-12-05 20:23:00,52.0,50.4,29.95,SSW,200,0.0,0.0,94,0.00,,,0.00,meteobridge,2013-12-06 01:23:00,
2013-12-05 20:29:00,52.0,50.4,29.95,SW,228,0.0,0.0,94,0.00,,,0.00,meteobridge,2013-12-06 01:29:00,
2013-12-05 20:35:00,51.8,50.2,29.94,SE,145,0.0,0.0,94,0.00,,,0.00,meteobridge,2013-12-06 01:35:00,
2013-12-05 20:41:00,51.6,50.0,29.94,SSE,167,0.9,2.9,94,0.00,,,0.00,meteobridge,2013-12-06 01:41:00,
2013-12-05 20:48:00,51.6,50.0,29.94,South,190,0.9,0.9,94,0.00,,,0.00,meteobridge,2013-12-06 01:48:00,
2013-12-05 20:54:00,51.8,50.2,29.95,SSW,208,0.0,0.9,94,0.00,,,0.00,meteobridge,2013-12-06 01:54:00,
2013-12-05 21:00:00,52.0,50.4,29.94,ESE,121,0.0,0.0,94,0.00,,,0.00,meteobridge,2013-12-06 02:00:00,
2013-12-05 21:07:00,52.2,50.5,29.95,SW,232,0.9,0.9,94,0.00,,,0.00,meteobridge,2013-12-06 02:07:00,
2013-12-05 21:13:00,52.2,50.5,29.94,SW,224,0.0,0.0,94,0.00,,,0.00,meteobridge,2013-12-06 02:13:00,
2013-12-05 21:19:00,52.3,50.7,29.94,SSE,155,0.0,0.0,94,0.00,,,0.00,meteobridge,2013-12-06 02:19:00,
2013-12-05 21:25:00,52.2,50.5,29.94,SW,228,0.0,0.0,94,0.00,,,0.00,meteobridge,2013-12-06 02:25:00,
2013-12-05 21:31:00,52.2,50.5,29.93,South,191,0.0,0.0,94,0.00,,,0.00,meteobridge,2013-12-06 02:31:00,
2013-12-05 21:38:00,52.2,50.5,29.93,SW,214,0.0,0.0,94,0.00,,,0.00,meteobridge,2013-12-06 02:38:00,
2013-12-05 21:44:00,52.2,50.5,29.93,SW,217,0.0,0.0,94,0.00,,,0.00,meteobridge,2013-12-06 02:44:00,
2013-12-05 21:50:00,52.3,50.7,29.93,SW,232,0.0,0.0,94,0.00,,,0.00,meteobridge,2013-12-06 02:50:00,
2013-12-05 21:56:00,52.5,50.9,29.93,SW,222,0.0,2.9,94,0.00,,,0.00,meteobridge,2013-12-06 02:56:00,
2013-12-05 22:03:00,52.5,50.9,29.93,SW,221,2.0,2.0,94,0.00,,,0.00,meteobridge,2013-12-06 03:03:00,
2013-12-05 22:09:00,52.5,50.9,29.92,SW,214,0.0,0.9,94,0.00,,,0.00,meteobridge,2013-12-06 03:09:00,
2013-12-05 22:15:00,52.5,50.9,29.92,SSW,204,0.0,0.0,94,0.00,,,0.00,meteobridge,2013-12-06 03:15:00,
2013-12-05 22:21:00,52.5,50.9,29.92,SSW,207,0.0,0.0,94,0.00,,,0.00,meteobridge,2013-12-06 03:21:00,
2013-12-05 22:28:00,52.5,50.9,29.92,SW,219,0.0,0.0,94,0.00,,,0.00,meteobridge,2013-12-06 03:28:00,
2013-12-05 22:34:00,52.5,50.9,29.92,South,181,0.0,0.9,94,0.00,,,0.00,meteobridge,2013-12-06 03:34:00,
2013-12-05 22:40:00,52.5,50.9,29.92,SSW,210,0.0,0.0,94,0.00,,,0.00,meteobridge,2013-12-06 03:40:00,
2013-12-05 22:46:00,52.5,50.9,29.92,SE,139,0.0,0.0,94,0.00,,,0.00,meteobridge,2013-12-06 03:46:00,
2013-12-05 22:52:00,52.5,50.9,29.91,ESE,123,0.0,0.0,94,0.00,,,0.00,meteobridge,2013-12-06 03:52:00,
2013-12-05 22:59:00,52.5,50.9,29.92,SW,231,0.0,0.0,94,0.00,,,0.00,meteobridge,2013-12-06 03:59:00,
2013-12-05 23:05:00,52.7,51.1,29.92,SW,219,0.0,0.0,94,0.00,,,0.00,meteobridge,2013-12-06 04:05:00,
2013-12-05 23:11:00,52.9,51.3,29.92,SW,226,0.9,2.9,94,0.00,,,0.00,meteobridge,2013-12-06 04:11:00,
2013-12-05 23:17:00,53.1,51.4,29.92,SW,228,0.0,2.0,94,0.00,,,0.00,meteobridge,2013-12-06 04:17:00,
2013-12-05 23:24:00,53.1,51.4,29.92,West,277,0.0,0.0,94,0.00,,,0.00,meteobridge,2013-12-06 04:24:00,
2013-12-05 23:30:00,53.1,51.4,29.92,SW,229,0.0,0.0,94,0.00,,,0.00,meteobridge,2013-12-06 04:30:00,
2013-12-05 23:36:00,53.1,51.4,29.91,SSW,203,0.9,2.9,94,0.00,,,0.00,meteobridge,2013-12-06 04:36:00,
2013-12-05 23:42:00,53.2,51.6,29.91,SSW,204,0.0,2.9,94,0.00,,,0.00,meteobridge,2013-12-06 04:42:00,
2013-12-05 23:49:00,53.1,51.4,29.91,SW,221,0.0,0.0,94,0.00,,,0.00,meteobridge,2013-12-06 04:49:00,
2013-12-05 23:55:00,52.9,51.3,29.91,SW,225,0.0,0.0,94,0.00,,,0.00,meteobridge,2013-12-06 04:55:00,